Date String (YYYY-MM-DD hh:mm:ss) UTC,Instrument flags,absolute air pressure of the measurement (hPa),sample flow rate (lpm),inlet stack bypass flow (lpm),air temperature of the measurement (°C),ambient temperature measured by the external sensor (°C),aerosol sample conditioner tube jacket temperature (°C),OPC LED temperature (°C),internal box temperature (°C),relative humidity of the measurement (%),span deviation,mass concentration of particles derived from Lorenz-Mie calculation of OPC scattering (μg/m³),mass concentration of particles derived from Lorenz-Mie calculation of OPC scattering (μg/m³),mass concentration of particles derived from Lorenz-Mie calculation of OPC scattering (μg/m³)
DateTimeUTC,F1_M11,P_M11,Q1_M11,Q2_M11,T1_M11,T2_M11,T3_M11,T4_M11,T5_M11,U1_M11,ZSPAN_M11,X0_M11,X2_M11,X1_M11
2023-07-24 19:00:00,SystemResetWarning,0835.4,5.01,000.00,028.9,025.0,000.0,036.9,030.1,28.5,0000.0,0019.30,0005.97,0004.95
2023-07-24 19:01:00,SystemResetWarning,0835.4,5.01,000.00,028.8,025.4,000.0,037.0,030.0,26.4,0000.0,0019.94,0005.94,0004.92
2023-07-24 19:02:00,SystemResetWarning,0835.4,4.99,000.00,028.8,025.8,000.0,037.0,030.0,23.1,0000.0,0020.21,0005.88,0004.88
2023-07-24 19:03:00,SystemResetWarning,0835.4,5.00,000.00,028.8,026.2,000.0,037.0,030.1,24.3,0000.0,0019.76,0005.89,0004.87
2023-07-24 19:04:00,SystemResetWarning,0835.4,5.00,000.00,028.8,026.6,000.0,037.1,030.2,24.9,0000.0,0020.22,0005.89,0004.86
2023-07-24 19:05:00,SystemResetWarning,0835.4,5.01,000.00,028.8,027.0,000.0,037.1,030.3,25.8,0000.0,0018.93,0005.89,0004.88
2023-07-24 19:06:00,SystemResetWarning,0835.4,4.99,000.00,028.9,027.0,000.0,037.0,030.4,26.3,0000.0,0018.65,0005.89,0004.90
2023-07-24 19:07:00,SystemResetWarning,0835.4,4.99,000.00,028.9,025.6,000.0,036.9,030.2,26.9,0000.0,0018.31,0005.89,0004.91
2023-07-24 19:08:00,SystemResetWarning,0835.3,5.01,000.00,028.8,024.8,000.0,036.9,030.0,25.4,0000.0,0017.25,0005.88,0004.92
2023-07-24 19:09:00,SystemResetWarning,0835.3,5.01,000.00,028.7,025.1,000.0,036.9,030.0,25.9,0000.0,0018.12,0005.87,0004.91
2023-07-24 19:10:00,SystemResetWarning,0835.3,5.00,000.00,028.7,025.5,000.0,036.9,029.9,27.3,0000.0,0018.99,0005.84,0004.92
2023-07-24 19:11:00,SystemResetWarning,0835.3,5.00,000.00,028.7,026.0,000.0,036.9,030.0,26.7,0000.0,0018.85,0005.84,0004.94
2023-07-24 19:12:00,SystemResetWarning,0835.3,5.00,000.00,028.7,026.4,000.0,037.0,030.2,26.4,0000.0,0018.14,0005.87,0004.96
2023-07-24 19:13:00,SystemResetWarning,0835.5,5.00,000.00,028.7,026.8,000.0,037.0,030.2,25.4,0000.0,0017.23,0005.91,0004.97
2023-07-24 19:14:00,SystemResetWarning,0835.3,4.99,000.00,028.8,027.2,000.0,037.0,030.3,25.5,0000.0,0016.59,0005.86,0004.96
2023-07-24 19:15:00,SystemResetWarning,0835.3,4.99,000.00,028.8,026.5,000.0,036.9,030.3,25.8,0000.0,0015.39,0005.81,0004.94
2023-07-24 19:16:00,SystemResetWarning,0835.2,5.01,000.00,028.7,025.2,000.0,036.9,030.0,26.4,0000.0,0015.04,0005.80,0004.91
2023-07-24 19:17:00,SystemResetWarning,0835.3,5.01,000.00,028.7,025.0,000.0,036.8,030.0,26.4,0000.0,0014.20,0005.69,0004.81
2023-07-24 19:18:00,SystemResetWarning,0835.2,5.02,000.00,028.6,025.4,000.0,036.8,029.9,26.0,0000.0,0013.79,0005.58,0004.72
2023-07-24 19:19:00,SystemResetWarning,0835.2,4.99,000.00,028.6,025.8,000.0,036.9,029.9,25.5,0000.0,0013.90,0005.45,0004.64
2023-07-24 19:20:00,SystemResetWarning,0835.3,4.99,000.00,028.6,026.2,000.0,036.9,030.1,26.6,0000.0,0013.33,0005.38,0004.57
2023-07-24 19:21:00,SystemResetWarning,0835.3,5.00,000.00,028.7,026.6,000.0,036.9,030.2,26.3,0000.0,0012.34,0005.29,0004.50
2023-07-24 19:22:00,SystemResetWarning,0835.3,5.01,000.00,028.7,027.0,000.0,037.0,030.3,27.1,0000.0,0012.28,0005.22,0004.44
2023-07-24 19:23:00,SystemResetWarning,0835.3,5.00,000.00,028.7,026.3,000.0,036.9,030.2,26.1,0000.0,0012.84,0005.15,0004.38
2023-07-24 19:24:00,SystemResetWarning,0835.3,5.00,000.00,028.7,025.0,000.0,036.8,030.0,26.6,0000.0,0013.10,0005.12,0004.37
2023-07-24 19:25:00,SystemResetWarning,0835.3,5.02,000.00,028.6,024.9,000.0,036.7,029.9,27.4,0000.0,0013.11,0005.10,0004.35
2023-07-24 19:26:00,SystemResetWarning,0835.2,5.00,000.00,028.5,025.3,000.0,036.8,029.9,27.6,0000.0,0012.95,0005.05,0004.32
2023-07-24 19:27:00,SystemResetWarning,0835.3,5.00,000.00,028.5,025.7,000.0,036.8,029.9,27.7,0000.0,0013.13,0004.97,0004.31
2023-07-24 19:28:00,SystemResetWarning,0835.2,5.01,000.00,028.5,026.1,000.0,036.8,030.0,26.4,0000.0,0013.69,0005.00,0004.34
2023-07-24 19:29:00,SystemResetWarning,0835.2,5.00,000.00,028.6,026.6,000.0,036.9,030.1,26.6,0000.0,0013.31,0005.02,0004.38
2023-07-24 19:30:00,SystemResetWarning,0835.2,4.99,000.00,028.6,026.9,000.0,036.9,030.2,26.2,0000.0,0013.00,0005.07,0004.39
2023-07-24 19:31:00,SystemResetWarning,0835.2,4.99,000.00,028.7,027.0,000.0,036.9,030.3,25.4,0000.0,0013.53,0005.07,0004.41
2023-07-24 19:32:00,SystemResetWarning,0835.2,5.00,000.00,028.6,025.7,000.0,036.8,030.0,26.5,0000.0,0013.55,0005.09,0004.45
2023-07-24 19:33:00,SystemResetWarning,0835.1,5.01,000.00,028.5,024.8,000.0,036.7,029.8,28.8,0000.0,0013.98,0005.14,0004.48
2023-07-24 19:34:00,SystemResetWarning,0835.1,5.01,000.00,028.5,025.1,000.0,036.7,029.8,30.1,0000.0,0013.52,0005.19,0004.52
2023-07-24 19:35:00,SystemResetWarning,0835.1,4.99,000.00,028.4,025.5,000.0,036.7,029.8,24.2,0000.0,0013.51,0005.19,0004.53
2023-07-24 19:36:00,SystemResetWarning,0835.1,5.00,000.00,028.5,025.9,000.0,036.8,029.9,24.0,0000.0,0013.96,0005.24,0004.55
2023-07-24 19:37:00,SystemResetWarning,0835.2,5.00,000.00,028.5,026.3,000.0,036.8,030.0,24.4,0000.0,0014.17,0005.27,0004.59
2023-07-24 19:38:00,SystemResetWarning,0835.2,5.00,000.00,028.5,026.7,000.0,036.8,030.2,25.4,0000.0,0014.42,0005.32,0004.63
2023-07-24 19:39:00,SystemResetWarning,0835.1,5.00,000.00,028.6,027.1,000.0,036.8,030.3,25.9,0000.0,0013.94,0005.33,0004.64
2023-07-24 19:40:00,SystemResetWarning,0835.1,4.98,000.00,028.6,026.5,000.0,036.8,030.2,26.2,0000.0,0014.27,0005.35,0004.64
2023-07-24 19:41:00,SystemResetWarning,0835.0,5.00,000.00,028.6,025.1,000.0,036.7,030.1,26.2,0000.0,0014.40,0005.35,0004.66
2023-07-24 19:42:00,SystemResetWarning,0835.0,5.01,000.00,028.5,024.9,000.0,036.6,030.0,25.0,0000.0,0013.64,0005.39,0004.67
2023-07-24 19:43:00,SystemResetWarning,0835.0,5.01,000.00,028.5,025.3,000.0,036.7,029.9,22.9,0000.0,0014.12,0005.38,0004.67
2023-07-24 19:44:00,SystemResetWarning,0835.0,4.99,000.00,028.4,025.8,000.0,036.7,029.9,20.0,0000.0,0014.51,0005.37,0004.66
2023-07-24 19:45:00,SystemResetWarning,0834.9,5.00,000.00,028.5,026.2,000.0,036.8,030.0,20.4,0000.0,0015.57,0005.36,0004.65
2023-07-24 19:46:00,SystemResetWarning,0835.0,5.00,000.00,028.5,026.6,000.0,036.8,030.1,21.6,0000.0,0016.91,0005.34,0004.63
2023-07-24 19:47:00,SystemResetWarning,0835.0,5.00,000.00,028.6,027.0,000.0,036.8,030.2,22.8,0000.0,0016.51,0005.31,0004.61
2023-07-24 19:48:00,SystemResetWarning,0834.9,4.99,000.00,028.6,026.4,000.0,036.8,030.2,25.6,0000.0,0016.70,0005.32,0004.60
2023-07-24 19:49:00,SystemResetWarning,0834.8,4.99,000.00,028.5,025.0,000.0,036.7,030.0,24.7,0000.0,0016.57,0005.27,0004.56
2023-07-24 19:50:00,SystemResetWarning,0835.3,5.02,000.00,028.5,024.8,000.0,036.6,029.9,22.5,0000.0,0016.09,0005.20,0004.51
2023-07-24 19:51:00,SystemResetWarning,0835.4,5.01,000.00,028.4,025.2,000.0,036.7,029.8,25.1,0000.0,0015.93,0005.14,0004.47
2023-07-24 19:52:00,SystemResetWarning,0835.3,5.00,000.00,028.4,025.6,000.0,036.7,029.9,22.9,0000.0,0015.88,0005.09,0004.41
2023-07-24 19:53:00,SystemResetWarning,0835.3,4.99,000.00,028.4,026.1,000.0,036.7,030.0,24.4,0000.0,0015.93,0005.01,0004.36
2023-07-24 19:54:00,SystemResetWarning,0835.3,5.00,000.00,028.5,026.5,000.0,036.8,030.1,25.2,0000.0,0016.04,0004.99,0004.32
2023-07-24 19:55:00,SystemResetWarning,0835.2,5.00,000.00,028.5,026.9,000.0,036.8,030.2,26.7,0000.0,0015.99,0004.97,0004.27
2023-07-24 19:56:00,SystemResetWarning,0835.2,5.00,000.00,028.6,027.3,000.0,036.8,030.3,24.6,0000.0,0015.24,0004.91,0004.23
2023-07-24 19:57:00,SystemResetWarning,0835.2,4.98,000.00,028.6,026.7,000.0,036.8,030.2,22.5,0000.0,0013.55,0004.87,0004.18
2023-07-24 19:58:00,SystemResetWarning,0834.7,5.01,000.00,028.5,025.3,000.0,036.7,030.0,24.0,0000.0,0012.43,0004.82,0004.14
2023-07-24 19:59:00,SystemResetWarning,0834.7,5.01,000.00,028.5,025.0,000.0,036.6,029.9,23.7,0000.0,0012.10,0004.64,0004.03
